Novato, CA

5:26 PM PST on November 18, 2019 (GMT -0800)
Gnoss

Weather History for KDVO - September, 2019

Change the Weather History Date:

Saturday, September 7, 2019

  Actual Average (WUND) Record (WUND)
Temperature  
Mean Temperature 66 °F -  
Max Temperature 73 °F - - (-1)
Min Temperature 60 °F - - (-1)
Cooling Degree Days 2    
Growing Degree Days 16 (Base 50)    
Moisture  
Dew Point 55 °F    
Average Humidity 64    
Maximum Humidity 88    
Minimum Humidity 53    
Precipitation  
Precipitation 0.00 in - - ()
Sea Level Pressure  
Sea Level Pressure 29.97 in    
Wind  
Wind Speed 10 mph ()    
Max Wind Speed 20 mph    
Max Gust Speed 36 mph    
Visibility 10.0 miles    
Events      
Averages and records for this station are not official NWS values.
T = Trace of Precipitation, MM = Missing Value Source: Averaged Metar Reports

Daily Weather History Graph

Daily Weather History Graph

Search for Another Location

Airport or City:

Astronomy

Sep. 07, 2019 Rise Set
Actual Time 6:45 AM PDT 7:30 PM PDT
Civil Twilight 6:18 AM PDT 7:57 PM PDT
Nautical Twilight 5:46 AM PDT 8:29 PM PDT
Astronomical Twilight 5:14 AM PDT 9:01 PM PDT
Moon 3:47 PM PDT (9/7) 12:45 AM PDT (9/7)
Length of Visible Light 13h 39m
Length of Day
12h 45m
Waxing Gibbous, 67% of the Moon is Illuminated
Sep 7
Waxing Gibbous
Sep 13
Full
Sep 21
Last Quarter
Sep 28
New
Oct 5
First Quarter

Hourly Weather History & Observations

Time (PDT) Temp. Dew Point Humidity Pressure Visibility Wind Dir Wind Speed Gust Speed Precip Events Conditions
8:00 AM 60.8 °F 57.2 °F 88% 30.03 in 10.0 mi SW 8.1 mph 13.8 mph N/A   Overcast
10:00 AM - - N/A% - - North - - N/A   Unknown
10:15 AM 62.6 °F 57.2 °F 82% 30.03 in 10.0 mi Calm Calm - N/A   Unknown
10:35 AM 64.4 °F 57.2 °F 77% 30.03 in 10.0 mi Calm Calm - N/A   Overcast
10:55 AM 66.2 °F 57.2 °F 73% 30.03 in 10.0 mi Variable 6.9 mph - N/A   Mostly Cloudy
11:15 AM 68.0 °F 57.2 °F 68% 30.03 in 10.0 mi SW 12.7 mph - N/A   Mostly Cloudy
11:35 AM 66.2 °F 57.2 °F 73% 30.03 in 10.0 mi SW 15.0 mph 23.0 mph N/A   Overcast
11:55 AM 66.2 °F 57.2 °F 73% 30.03 in 10.0 mi WSW 17.3 mph 26.5 mph N/A   Overcast
12:15 PM 66.2 °F 57.2 °F 73% 30.03 in 10.0 mi NW 5.8 mph 15.0 mph N/A   Overcast
12:35 PM 69.8 °F 57.2 °F 64% 30.03 in 10.0 mi Calm Calm 19.6 mph N/A   Mostly Cloudy
12:55 PM 71.6 °F 57.2 °F 60% 30.02 in 10.0 mi Variable 5.8 mph 13.8 mph N/A   Scattered Clouds
1:15 PM 69.8 °F 55.4 °F 60% 30.02 in 10.0 mi NW 11.5 mph 17.3 mph N/A   Clear
1:35 PM 71.6 °F 55.4 °F 57% 30.01 in 10.0 mi West 13.8 mph 35.7 mph N/A   Clear
1:55 PM 71.6 °F 55.4 °F 57% 30.00 in 10.0 mi West 11.5 mph 26.5 mph N/A   Clear
2:15 PM 73.4 °F 55.4 °F 53% 29.99 in 10.0 mi West 18.4 mph 25.3 mph N/A   Clear
2:35 PM 73.4 °F 55.4 °F 53% 29.99 in 10.0 mi Variable 8.1 mph 17.3 mph N/A   Clear
2:55 PM 71.6 °F 55.4 °F 57% 29.99 in 10.0 mi Variable 5.8 mph 19.6 mph N/A   Clear
3:15 PM 71.6 °F 55.4 °F 57% 29.98 in 10.0 mi WNW 16.1 mph 25.3 mph N/A   Clear
3:35 PM 71.6 °F 55.4 °F 57% 29.97 in 10.0 mi West 11.5 mph 31.1 mph N/A   Clear
3:55 PM 71.6 °F 55.4 °F 57% 29.97 in 10.0 mi WSW 16.1 mph 28.8 mph N/A   Clear
4:15 PM 71.6 °F 55.4 °F 57% 29.96 in 10.0 mi West 13.8 mph 23.0 mph N/A   Clear
4:35 PM 71.6 °F 55.4 °F 57% 29.95 in 10.0 mi West 16.1 mph 32.2 mph N/A   Partly Cloudy
4:55 PM 71.6 °F 55.4 °F 57% 29.94 in 10.0 mi West 18.4 mph 26.5 mph N/A   Partly Cloudy
5:15 PM 71.6 °F 55.4 °F 57% 29.93 in 10.0 mi West 19.6 mph 28.8 mph N/A   Clear
5:35 PM 71.6 °F 55.4 °F 57% 29.93 in 10.0 mi West 17.3 mph - N/A   Clear
5:55 PM 69.8 °F 57.2 °F 64% 29.93 in 10.0 mi West 17.3 mph 26.5 mph N/A   Clear
6:15 PM 69.8 °F 55.4 °F 60% 29.93 in 10.0 mi WSW 18.4 mph 26.5 mph N/A   Clear
6:35 PM 68.0 °F 55.4 °F 64% 29.92 in 10.0 mi West 16.1 mph 25.3 mph N/A   Clear
6:55 PM 68.0 °F 55.4 °F 64% 29.93 in 10.0 mi West 18.4 mph 25.3 mph N/A   Clear
7:15 PM 66.2 °F 55.4 °F 68% 29.94 in 10.0 mi WSW 13.8 mph 27.6 mph N/A   Clear
7:35 PM 66.2 °F 55.4 °F 68% 29.94 in 10.0 mi West 19.6 mph 27.6 mph N/A   Clear
7:55 PM 66.2 °F 53.6 °F 64% 29.94 in 10.0 mi WSW 18.4 mph - N/A   Clear
8:15 PM 66.2 °F 53.6 °F 64% 29.95 in 10.0 mi West 11.5 mph 18.4 mph N/A   Clear
8:35 PM 66.2 °F 53.6 °F 64% 29.95 in 10.0 mi West 8.1 mph - N/A   Clear
8:55 PM 68.0 °F 53.6 °F 60% 29.95 in 10.0 mi Variable 6.9 mph 18.4 mph N/A   Clear
9:15 PM 68.0 °F 53.6 °F 60% 29.95 in 10.0 mi West 11.5 mph 18.4 mph N/A   Clear
9:35 PM 66.2 °F 53.6 °F 64% 29.95 in 10.0 mi West 10.4 mph 17.3 mph N/A   Clear
9:55 PM 66.2 °F 53.6 °F 64% 29.95 in 10.0 mi West 10.4 mph 16.1 mph N/A   Clear
10:15 PM 66.2 °F 53.6 °F 64% 29.95 in 10.0 mi West 11.5 mph - N/A   Clear
10:35 PM 64.4 °F 53.6 °F 68% 29.95 in 10.0 mi WSW 12.7 mph - N/A   Clear
10:55 PM 66.2 °F 53.6 °F 64% 29.95 in 10.0 mi Variable 6.9 mph - N/A   Clear
11:15 PM 66.2 °F 53.6 °F 64% 29.95 in 10.0 mi WSW 10.4 mph 16.1 mph N/A   Clear
11:35 PM 62.6 °F 53.6 °F 72% 29.95 in 10.0 mi East 9.2 mph - N/A   Clear
11:55 PM 60.8 °F 53.6 °F 77% 29.95 in 10.0 mi ESE 10.4 mph - N/A   Clear